peluche-caceres

Emmanuel Cáceres logró el triunfo en la séptima cita de la temporada para el TC2000, que se presentó en el Autódromo Oscar y Juan Gálvez de Buenos Aires. El “Peluche” ganó por tercera vez en lo que va del campeonato, tras sus éxitos en Concordia y San Jorge, y avisó que dará pelea en la defensa de la corona que conquistó en el último certamen.

El podio en el trazado porteño lo completaron Mariano Pernía y Alessandro Salerno. En tanto, entre los diez primeros lugares arribaron Antonino García, Pablo Vuyovich, Roberto Arato, Juan Ángel Rosso, Gianfranco Collino, Juan Pablo Rossotti y Agustín Lima Capitao.

Final TC2000 – Buenos Aires
1 EMMANUEL CACERES 30 42:25.033
2 MARIANO PERNIA 30 42:26.067 00:01.034
3 ALESSANDRO SALERNO 30 42:29.619 00:04.586
4 ANTONINO GARCIA 30 42:35.841 00:10.808
5 PABLO VUYOVICH 30 42:41.029 00:15.996
6 ROBERTO ARATO 30 42:43.598 00:18.565
7 JUAN ANGEL ROSSO 30 42:44.775 00:19.742
8 GIANFRANCO COLLINO 30 42:46.237 00:21.204
9 JUAN PABLO ROSSOTTI 30 42:54.352 00:29.319
10 AGUSTIN LIMA CAPITAO 30 42:56.228 00:31.195
11 DANILO D´ANGELO 30 43:03.672 00:38.639
12 TOMAS GAGLIARDI GENNE 30 43:04.383 00:39.350
13 FEDERICO IRIBARNE 30 43:08.659 00:43.626
14 SEBASTIAN PELUSO 30 43:12.370 00:47.337
15 MARTIN MOGGIA 30 43:14.614 00:49.581
16 MARCELO CIARROCCHI 30 43:14.716 00:49.683
17 AUGUSTO SCALBI 30 43:20.175 00:55.142
18 GREGORIO CONTA 30 43:23.343 00:58.310
No clasificado (75% = 22 Vueltas)
19 DIEGO AZAR 20 28:29.798 10 Vueltas
20 ¨CHUCK¨ D´ ANTONIO 15 21:48.288 15 Vueltas
21 IGNACIO SALVUCCI 14 25:00.512 16 Vueltas
22 GABRIEL GANDULIA 4 05:48.303 26 Vueltas
23 SEBASTIAN PEREYRA 4 06:07.756 00:19.453
24 TOMAS CINGOLANI 2 02:56.539 28 Vueltas
25 MANUEL LUQUE 2 02:59.621 00:03.082
26 SANTIAGO MALLO 1 01:31.372 29 Vueltas

S.B

Compartir